Location: Cheadle
(51.0146°N, 113.5417°W)
Time: 07:43:37
(UTC+00:00)

TIGRISAT - Visible Passes

Search period start: 03 December 2023 00:00
Search period end: 13 December 2023 00:00
Orbit: 598 x 676 km, 97.7° (Epoch: 02 December)

Date Brightness Start Highest point End Pass type
(mag) Time Alt. Az. Time Alt. Az. Time Alt. Az.
03 Dec ? 00:54:08 10° NNE 00:58:40 86° E 01:03:04 10° SSW visible
03 Dec ? 02:31:54 10° NNW 02:34:30 15° NW 02:37:05 10° W visible
04 Dec ? 01:16:48 10° N 01:21:15 59° WNW 01:25:32 10° SSW visible
04 Dec ? 02:56:15 10° NW 02:56:46 10° NW 02:57:17 10° WNW visible
05 Dec ? 00:03:14 10° NNE 00:07:09 29° E 00:10:59 10° SSE visible
05 Dec ? 01:39:35 10° N 01:43:44 37° WNW 01:47:45 10° SW visible
06 Dec ? 00:25:34 10° NNE 00:29:54 47° E 00:34:05 10° S visible
06 Dec ? 02:02:30 10° N 02:06:08 24° WNW 02:09:40 10° WSW visible
07 Dec ? 00:48:03 10° NNE 00:52:32 77° ESE 00:56:53 10° S visible
07 Dec ? 02:25:39 10° NNW 02:28:27 17° WNW 02:31:12 10° W visible
08 Dec ? 01:10:39 10° N 01:15:06 66° WNW 01:19:23 10° SSW visible
08 Dec ? 02:49:27 10° NW 02:50:42 11° NW 02:51:57 10° WNW visible
09 Dec ? 01:33:22 10° N 01:37:33 41° WNW 01:41:37 10° SW visible
10 Dec ? 00:19:25 10° NNE 00:23:38 41° E 00:27:42 10° SSE visible
10 Dec ? 01:56:14 10° N 01:59:56 27° WNW 02:03:35 10° WSW visible
11 Dec ? 00:41:51 10° NNE 00:46:15 68° ESE 00:50:31 10° S visible
11 Dec ? 02:19:16 10° NNW 02:22:15 18° WNW 02:25:10 10° W visible
12 Dec ? 01:04:23 10° N 01:08:47 75° WNW 01:13:04 10° SSW visible
12 Dec ? 02:42:47 10° NNW 02:44:29 12° NW 02:46:09 10° WNW visible
